Find Hai Yang 3-01

NORAD ID: 58349 Int'l Des: 2023-176 Owner: GYZ/CASC Country: CN operational
LEOCIRCULARRETROGRADESSO

Current View

Loading 3D Globe...

About Hai Yang 3-01

Description loading...

Upcoming Passes

Passes for default location (London). Set your location on the main map for personalized predictions.

Altitude History

Loading altitude history...

Two-Line Element Set

1 58349U 23176A 26150.16749279 .00000166 00000-0 74878-4 0 9998
2 58349 98.5466 228.3421 0010828 81.0532 279.1878 14.34166428132736
Epoch: May 30, 2026 • Age: 13 hours

Current Status

Altitude 780.6 km
Velocity 7.46 km/s
Sub-Earth Point 7.04°N, 86.43°W
Launch Date Nov 16, 2023
Age 2.5 years
Type other

Technical Details

Classification Payload
Mass 1500.00 kg
Dry Mass 1500.00 kg
Total Mass 1500.00 kg
Length 1.00 m
Diameter 1.00 m
Span 4.00 m
Shape Box + 2 Pan
Manufacturer DFHS
Bus Type CAST-968
Phase Status In Orbit
Owner/State GYZ/CASC/CN

Most Searched